Weather History for MCMWTC BRIDGEPORT, CA, CA

Change the Weather History Date:

Tuesday, March 25, 2014

  Actual Average (KTVL) Record (KTVL)
Temperature  
Mean Temperature 40 °F 37 °F  
Max Temperature 55 °F 50 °F 64 °F (1988)
Min Temperature 25 °F 24 °F 3 °F (1995)
Degree Days  
Heating Degree Days 26 28  
Month to date heating degree days 749  
Since 1 July heating degree days 5986  
Cooling Degree Days 0 0  
Month to date cooling degree days 0  
Year to date cooling degree days 0  
Moisture  
Dew Point 18 °F    
Average Humidity 43    
Maximum Humidity 58    
Minimum Humidity 23    
Precipitation  
Precipitation 0.00 in - 1.20 in (1975)
Month to date precipitation  
Year to date precipitation  
Sea Level Pressure  
Sea Level Pressure 29.86 in    
Wind  
Wind Speed 7 mph (SW)    
Max Wind Speed 22 mph    
Max Gust Speed 44 mph    
Visibility 10 miles    
Events      
T = Trace of Precipitation, MM = Missing Value Source: NWS Daily Summary

Daily Weather History Graph

Daily Weather History Graph

Search for Another Location

Airport:

Trip Planner

Search our weather history database for the weather conditions in past years. The results will help you decide how hot, cold, wet, or windy it might be!

Date:

Astronomy

Mar. 25, 2014 Rise Set
Actual Time 6:53 AM PDT 7:14 PM PDT
Civil Twilight 6:27 AM PDT 7:41 PM PDT
Nautical Twilight 5:56 AM PDT 8:12 PM PDT
Astronomical Twilight 5:24 AM PDT 8:44 PM PDT
Moon 3:15 AM PDT (3/25) 1:54 PM PDT (3/25)
Length of Visible Light 13h 14m
Length of Day
12h 21m
Waning Crescent, 31% of the Moon is Illuminated
Mar 25
Waning Crescent
Mar 30
New
Apr 7
First Quarter
Apr 15
Full
Apr 22
Last Quarter

Hourly Weather History & Observations

Time (PDT) Temp. Windchill Dew Point Humidity Pressure Visibility Wind Dir Wind Speed Gust Speed Precip Events Conditions
12:52 AM 30.9 °F - 16.0 °F 54% 30.05 in 10.0 mi Calm Calm - N/A   Clear
1:52 AM 28.0 °F - 15.1 °F 58% 30.04 in 10.0 mi Calm Calm - N/A   Clear
2:52 AM 30.9 °F - 16.0 °F 54% 30.00 in 10.0 mi Calm Calm - N/A   Clear
3:52 AM 28.9 °F - 15.1 °F 56% 29.99 in 10.0 mi Calm Calm - N/A   Clear
4:52 AM 25.0 °F - 12.0 °F 58% 29.98 in 10.0 mi Calm Calm - N/A   Clear
5:52 AM 26.1 °F - 12.0 °F 55% 29.97 in 10.0 mi Calm Calm - N/A   Clear
6:52 AM 27.0 °F - 12.0 °F 53% 29.99 in 10.0 mi Calm Calm - N/A   Clear
7:52 AM 39.9 °F - 16.0 °F 38% 29.93 in 10.0 mi Calm Calm - N/A   Clear
8:52 AM 46.9 °F - 15.1 °F 28% 29.91 in 10.0 mi SSW 15.0 mph 21.9 mph N/A   Clear
9:52 AM 48.9 °F - 16.0 °F 27% 29.87 in 10.0 mi SSW 17.3 mph 34.5 mph N/A   Clear
10:52 AM 52.0 °F - 16.0 °F 24% 29.87 in 10.0 mi SSW 17.3 mph 31.1 mph N/A   Clear
11:52 AM 54.0 °F - 17.1 °F 23% 29.86 in 10.0 mi SSW 18.4 mph 33.4 mph N/A   Partly Cloudy
12:52 PM 53.1 °F - 21.9 °F 30% 29.84 in 10.0 mi SSW 15.0 mph 40.3 mph N/A   Mostly Cloudy
1:52 PM 53.1 °F - 24.1 °F 32% 29.82 in 10.0 mi SSW 21.9 mph 29.9 mph N/A   Mostly Cloudy
2:52 PM 52.0 °F - 24.1 °F 34% 29.79 in 10.0 mi SW 19.6 mph 34.5 mph N/A   Mostly Cloudy
3:52 PM 44.1 °F 35.4 °F 26.1 °F 49% 29.84 in 8.0 mi WSW 21.9 mph 35.7 mph N/A   Overcast
4:52 PM 41.0 °F 33.5 °F 27.0 °F 57% 29.86 in 10.0 mi SW 13.8 mph 26.5 mph 0.00 in   Overcast
5:52 PM 41.0 °F 32.8 °F 21.0 °F 45% 29.83 in 10.0 mi SW 16.1 mph 24.2 mph 0.00 in   Scattered Clouds
6:52 PM 39.9 °F 32.1 °F 17.1 °F 40% 29.79 in 10.0 mi SW 13.8 mph 43.7 mph N/A   Clear
7:52 PM 39.0 °F 29.6 °F 17.1 °F 41% 29.72 in 10.0 mi SSW 18.4 mph 24.2 mph N/A   Clear
8:52 PM 37.9 °F 28.2 °F 16.0 °F 41% 29.69 in 10.0 mi SW 18.4 mph 32.2 mph N/A   Clear
9:52 PM 37.9 °F 27.3 °F 16.0 °F 41% 29.67 in 10.0 mi SW 21.9 mph 27.6 mph N/A   Clear
10:52 PM 37.0 °F 28.9 °F 18.0 °F 46% 29.63 in 10.0 mi WSW 12.7 mph 24.2 mph N/A   Clear
11:52 PM 37.0 °F 29.8 °F 19.0 °F 48% 29.60 in 10.0 mi SW 10.4 mph 18.4 mph N/A   Clear